Location: Unspecified
(0.0000°N, 0.0000°E)
Time: 23:07:35
(UTC+00:00)

ISS - Pass Details

Date: 23 April 2018
Orbit: 402 x 407 km, 51.6° (Epoch: 27 April)

Event Time Altitude Azimuth Distance (km) Brightness Sun altitude
Exits shadow 05:15:51 - 210° (SSW) 1,680 -1.1 -10.4°
Reaches altitude 10° 05:16:25 10° 210° (SSW) 1,449 -1.4 -10.2°
Maximum altitude 05:19:39 70° 125° (SE) 428 -3.6 -9.5°
Drops below altitude 10° 05:22:52 10° 41° (NE) 1,442 -0.1 -8.7°
Sets 05:24:56 0° 39° (NE) 2,297 0.9 -8.2°
